Find Starlink 6210

NORAD ID: 56485 Int'l Des: 2023-064 Owner: SPXS Country: US Constellation: starlink operational
LEOCIRCULAR

リアルタイム位置

3D地球を読み込み中...

Starlink 6210について

説明を読み込み中...

次回通過

Passes for default location (London). Set your location on the main map for personalized predictions.

高度履歴

Loading altitude history...

軌道要素

1 56485U 23064AP 26105.94110279 -.00000890 00000-0 -66811-4 0 9995
2 56485 70.0011 30.3536 0002829 271.4930 88.5905 14.98325297161324
Epoch: Apr 15, 2026 • Age: 7 hours

現在のステータス

高度 583.4 km
速度 7.57 km/s
衛星直下点 59.58°N, 115.32°W
打ち上げ日 May 10, 2023
運用期間 2.9 years
タイプ internet

技術仕様

分類 Payload
質量 305.00 kg
乾燥質量 290.00 kg
総質量 305.00 kg
長さ 0.20 m
直径 2.80 m
スパン 9.00 m
形状 Box + pan
製造者 SPXS
バスタイプ Starlink
フェーズステータス In Orbit
所有者/国 SPXS/US

Most Searched